[[{"header":{"parameterUnit":"m.s-1","parameterCategory":1,"la1":30.2991,"la2":30.254,"lo1":-89.0895,"lo2":-89.0444,"dy":0.0017,"dx":0.0017,"nx":28,"ny":28,"refTime":"2024-07-04T21:00:00:Z","depth":0,"parameterNumber":2,"parameterNumberName":"U-component_of_WINDS"},"data":[0,0,0,0,0,0,0,0,0,0,0,0,0,0,0,0,0,0,0,0,0,0,0,0,0,0,0,0,0,0,0,0,0,0,0,0,0,0,0,0,0,0,0,0,0,0,0,0,0,0,0,0,0,0,0,0,0,0,2.4538,2.4539,0,2.4692,2.4694,2.4696,2.4743,2.4742,2.4741,2.474,2.4902,2.4907,2.4912,0,0,0,0,0,0,0,0,0,0,0,0,0,2.4285,2.4289,2.4537,2.4539,2.4541,2.4692,2.4694,2.4696,2.4743,2.4742,2.4741,2.474,2.49,2.4906,2.4912,0,0,0,0,0,0,0,0,0,0,0,0,0,2.4412,2.429,2.4537,2.4582,2.4588,2.4692,2.4694,2.4697,2.4743,2.4742,2.4741,2.474,2.4898,2.4905,2.4913,2.4983,0,0,2.4936,2.4939,0,0,0,0,0,0,0,0,2.4405,2.4422,2.4574,2.458,2.4586,2.4697,2.4664,2.4793,2.4743,2.4684,2.474,2.4739,2.4835,2.4847,2.4879,2.4991,2.4998,2.4937,2.4941,2.4945,2.4947,0,0,0,0,0,0,0,2.4396,2.4415,2.4599,2.4576,2.4583,2.4596,2.4613,2.4689,2.4764,2.4689,2.4693,2.4711,2.4838,2.4872,2.4883,2.5,2.4936,2.4943,2.4948,2.4951,2.5178,2.518,0,0,0,0,0,0,2.4379,2.4408,2.4594,2.4603,2.4491,2.4602,2.4621,2.4663,2.4764,2.4778,2.4711,2.4712,2.486,2.4874,2.4889,2.4978,2.4944,2.4952,2.4956,2.5177,2.5179,2.518,0,0,0,0,0,0,2.4374,2.4395,2.4588,2.4507,2.4532,2.4607,2.4654,2.4666,2.47,2.478,2.4794,2.4732,2.4859,2.4879,2.496,2.4985,2.4955,2.4962,2.5175,2.5177,2.518,2.5157,0,0,0,0,0,0,2.4366,2.4393,2.442,2.4507,2.4536,2.4654,2.4656,2.467,2.4713,2.4715,2.4803,2.4817,2.486,2.4948,2.4967,2.4995,2.4968,2.5173,2.5176,2.5179,2.5156,2.5158,2.516,0,0,0,0,0,2.4357,2.4408,2.4421,2.4443,2.4571,2.4656,2.4672,2.472,2.4715,2.4743,2.4794,2.4814,2.4979,2.4956,2.4978,2.5008,2.5172,2.5175,2.5179,2.5155,2.5158,2.516,0,0,0,0,0,0,2.4322,2.442,2.4435,2.4516,2.4577,2.4663,2.47,2.4721,2.4786,2.4786,2.4843,2.4862,2.4939,2.4982,2.4954,2.5082,2.5076,2.5084,2.5051,2.5054,2.5056,2.5044,2.4974,0,0,0,0,0,2.4323,2.4383,2.4466,2.4529,2.4559,2.4624,2.4662,2.4694,2.476,2.4786,2.4844,2.4908,2.4974,2.5017,2.5082,2.5163,2.5183,2.5194,2.5197,2.5198,2.5204,2.525,2.5256,2.5192,2.5192,2.5191,0,0,2.4327,2.4388,2.4422,2.4523,2.4574,2.4636,2.4645,2.471,2.4756,2.4796,2.4876,2.4921,2.4996,2.5077,2.5116,2.5115,2.5227,2.5202,2.5203,2.5208,2.5254,2.526,2.5266,2.5194,2.5193,2.5193,0,0,2.4365,2.4417,2.4476,2.4527,2.4604,2.4647,2.4661,2.4745,2.4776,2.4856,2.4888,2.4945,2.5058,2.511,2.5152,2.5211,2.5232,2.5231,2.5242,2.5287,2.5292,2.5297,2.5318,2.5325,2.5237,2.5237,2.5237,0,2.436,2.4453,2.4503,2.4566,2.461,2.4649,2.4708,2.4756,2.4851,2.4881,2.4878,2.5021,2.5075,2.5169,2.5183,2.5216,2.5234,2.5221,2.5287,2.5292,2.5298,2.5318,2.5326,2.5236,2.5236,2.5236,2.5237,0,2.4444,2.4508,2.4546,2.4636,2.4684,2.4745,2.4805,2.4848,2.4875,2.4919,2.5002,2.5067,2.5147,2.5172,2.52,2.527,2.5267,2.5276,2.5271,2.5302,2.5323,2.5331,2.5235,2.5236,2.5236,2.5236,0,0,2.4463,2.458,2.4593,2.4635,2.4723,2.4774,2.4838,2.4915,2.4951,2.5016,2.5071,2.5166,2.5174,2.5221,2.5256,2.5294,2.5337,2.5298,2.5301,2.5303,2.542,2.5412,2.5421,2.5352,2.5354,2.5355,2.5413,0,2.4512,2.4626,2.4673,2.4765,2.4825,2.4864,2.492,2.498,2.5023,2.5082,2.513,2.5196,2.5202,2.5231,2.5271,2.5323,2.5362,2.532,2.5404,2.5407,2.5383,2.5432,2.5424,2.5475,2.5421,2.5423,2.5424,0,2.4584,2.4649,2.4747,2.4829,2.4856,2.4905,2.498,2.5035,2.5105,2.5134,2.5186,2.5219,2.5288,2.528,2.5376,2.5347,2.5385,2.5416,2.5419,2.5428,2.5416,2.5441,2.5493,2.55,2.5437,2.5436,2.5435,0,2.4588,2.4699,2.4773,2.4807,2.4905,2.4938,2.4981,2.505,2.5093,2.516,2.5189,2.5262,2.5302,2.5359,2.5411,2.54,2.5503,2.5498,2.5529,2.5527,2.5548,2.5546,2.5605,2.5573,2.5573,2.5573,2.5573,0,2.4637,2.4696,2.4776,2.4821,2.4888,2.4942,2.5007,2.5053,2.5114,2.5169,2.5208,2.5259,2.5324,2.5384,2.5426,2.5499,2.5517,2.5543,2.5553,2.5539,2.5536,2.5564,2.5561,2.5575,2.5574,2.5574,2.5574,0,2.4652,2.4708,2.479,2.4876,2.4899,2.4945,2.5019,2.5065,2.511,2.5179,2.5199,2.527,2.5342,2.54,2.5495,2.5523,2.56,2.5612,2.5576,2.5581,2.5608,2.5604,2.5687,2.5701,2.5659,2.566,2.566,0,2.468,2.4726,2.4816,2.4856,2.4898,2.4961,2.5005,2.5061,2.5106,2.5191,2.5226,2.5301,2.5364,2.5479,2.5539,2.5612,2.5626,2.565,2.5637,2.5622,2.5626,2.5622,2.5627,2.5651,2.5651,2.5651,2.5651,0,2.4722,2.4748,2.4811,2.4884,2.4936,2.4996,2.5057,2.5087,2.5154,2.5204,2.5278,2.5326,2.5423,2.5498,2.5577,2.5622,2.5648,2.5655,2.5666,2.5652,2.5629,2.5641,2.5579,2.5653,2.5653,2.5653,2.5652,2.5652,2.4745,2.4787,2.4858,2.4927,2.4979,2.5035,2.5082,2.5133,2.5196,2.5278,2.5308,2.5384,2.5455,2.5564,2.561,2.5671,2.5673,2.5689,2.5693,2.5695,2.5693,2.562,2.5686,2.5686,2.5686,2.5686,2.5686,0,2.4789,2.4837,2.4899,2.4983,2.5038,2.5058,2.5127,2.5171,2.5237,2.5301,2.5362,2.5447,2.552,2.5587,2.5663,2.5699,2.5713,2.5717,2.5714,2.5724,2.5688,2.567,2.5704,2.5704,2.5704,2.5704,2.5704,2.5704,2.4818,2.4892,2.4926,2.5026,2.5074,2.5148,2.5186,2.5238,2.5289,2.5383,2.5443,2.5486,2.5551,2.5632,2.57,2.5718,2.5744,2.5744,2.5765,2.573,2.5727,2.5724,2.5708,2.575,2.575,2.5797,2.5797,2.5798]},{"header":{"parameterUnit":"m.s-1","parameterCategory":1,"la1":30.2991,"la2":30.254,"lo1":-89.0895,"lo2":-89.0444,"dy":0.0017,"dx":0.0017,"nx":28,"ny":28,"refTime":"2024-07-04T21:00:00:Z","depth":0,"parameterNumber":3,"parameterNumberName":"V-component_of_WINDS"},"data":[0,0,0,0,0,0,0,0,0,0,0,0,0,0,0,0,0,0,0,0,0,0,0,0,0,0,0,0,0,0,0,0,0,0,0,0,0,0,0,0,0,0,0,0,0,0,0,0,0,0,0,0,0,0,0,0,0,0,4.4432,4.4432,0,4.4487,4.4488,4.4489,4.4493,4.4492,4.4491,4.4491,4.4543,4.4544,4.4546,0,0,0,0,0,0,0,0,0,0,0,0,0,4.4323,4.4325,4.4432,4.4433,4.4433,4.4487,4.4488,4.4489,4.4493,4.4492,4.4491,4.449,4.4542,4.4544,4.4547,0,0,0,0,0,0,0,0,0,0,0,0,0,4.4373,4.4325,4.4432,4.4442,4.4443,4.4487,4.4488,4.4489,4.4493,4.4492,4.4491,4.449,4.4541,4.4544,4.4547,4.4583,0,0,4.4556,4.4557,0,0,0,0,0,0,0,0,4.437,4.4377,4.444,4.4441,4.4443,4.4482,4.4469,4.452,4.4493,4.4474,4.4491,4.449,4.4523,4.4527,4.4539,4.4585,4.4588,4.4556,4.4558,4.4559,4.456,0,0,0,0,0,0,0,4.4367,4.4375,4.4454,4.444,4.4442,4.4441,4.4448,4.4478,4.4502,4.4475,4.4476,4.4483,4.4524,4.4537,4.4541,4.4588,4.4556,4.4558,4.456,4.4561,4.4663,4.4664,0,0,0,0,0,0,4.4362,4.4372,4.4452,4.4455,4.4404,4.4444,4.4451,4.447,4.4502,4.4506,4.4483,4.4483,4.4532,4.4537,4.4542,4.4585,4.4559,4.4562,4.4563,4.4662,4.4664,4.4665,0,0,0,0,0,0,4.436,4.4369,4.445,4.4414,4.4424,4.4447,4.4469,4.4472,4.4485,4.4508,4.4512,4.4493,4.4532,4.4538,4.4573,4.4587,4.4563,4.4566,4.4661,4.4663,4.4664,4.4671,0,0,0,0,0,0,4.4357,4.4368,4.4384,4.4414,4.4426,4.4481,4.447,4.4474,4.4491,4.449,4.4518,4.4522,4.4531,4.4568,4.4575,4.459,4.4568,4.466,4.4662,4.4664,4.467,4.4673,4.4675,0,0,0,0,0,4.4353,4.4383,4.4385,4.4394,4.4446,4.4482,4.4488,4.45,4.4492,4.4506,4.4521,4.4521,4.4584,4.4572,4.458,4.4596,4.4659,4.4661,4.4664,4.4668,4.4672,4.4675,0,0,0,0,0,0,4.4353,4.4387,4.439,4.4431,4.4454,4.4482,4.4501,4.4504,4.4528,4.4526,4.4538,4.4544,4.4577,4.459,4.4575,4.4631,4.4621,4.4624,4.4621,4.4625,4.4628,4.4623,4.457,0,0,0,0,0,4.4358,4.4386,4.4414,4.4448,4.4459,4.4478,4.4494,4.4501,4.4524,4.4533,4.455,4.4571,4.4595,4.4611,4.4635,4.4672,4.4676,4.4686,4.4689,4.4691,4.4694,4.4712,4.4716,4.4672,4.4672,4.4672,0,0,4.4369,4.4391,4.4408,4.4448,4.4467,4.4493,4.4486,4.4515,4.4533,4.4537,4.457,4.4583,4.4607,4.4642,4.4658,4.4653,4.4707,4.4694,4.4696,4.4697,4.4715,4.4719,4.4722,4.4673,4.4673,4.4673,0,0,4.4401,4.4422,4.4451,4.4469,4.4497,4.4509,4.4516,4.4545,4.4554,4.4587,4.459,4.4611,4.4654,4.467,4.4684,4.472,4.472,4.4727,4.4741,4.4758,4.4762,4.4765,4.4775,4.4779,4.473,4.473,4.473,0,4.441,4.4451,4.4465,4.4494,4.451,4.4516,4.4544,4.4561,4.4594,4.4604,4.4599,4.4651,4.4668,4.4705,4.4714,4.4726,4.4732,4.4724,4.476,4.4764,4.4767,4.4777,4.4781,4.4731,4.4731,4.4731,4.4731,0,4.446,4.4488,4.4508,4.4542,4.456,4.4589,4.4604,4.4621,4.4627,4.4639,4.4671,4.4691,4.4718,4.4728,4.4733,4.4765,4.4761,4.4758,4.4748,4.4771,4.4781,4.4785,4.4732,4.4731,4.4731,4.4731,0,0,4.4494,4.4534,4.4541,4.4555,4.4585,4.4606,4.4633,4.4661,4.4674,4.4697,4.4718,4.4753,4.475,4.4765,4.4772,4.4787,4.4812,4.4782,4.4783,4.4785,4.4846,4.4847,4.4852,4.4812,4.4813,4.4814,4.4844,0,4.4528,4.4578,4.4591,4.4632,4.4657,4.4662,4.4685,4.4705,4.4717,4.4738,4.475,4.4774,4.4769,4.4778,4.4793,4.4806,4.4824,4.4804,4.483,4.4831,4.4823,4.4858,4.4859,4.4887,4.4848,4.4848,4.4849,0,4.4575,4.4599,4.4644,4.4669,4.468,4.4701,4.4725,4.4747,4.4768,4.4775,4.4792,4.4797,4.4822,4.4811,4.4845,4.4831,4.4843,4.485,4.4851,4.4853,4.484,4.4858,4.4896,4.4899,4.4856,4.4855,4.4855,0,4.4592,4.4636,4.4668,4.468,4.4711,4.4725,4.4738,4.4759,4.4774,4.4795,4.4805,4.4828,4.4841,4.4858,4.4868,4.4859,4.49,4.4891,4.4905,4.4905,4.4913,4.4912,4.495,4.4922,4.4922,4.4922,4.4922,0,4.4628,4.4655,4.4676,4.4696,4.4724,4.4737,4.4765,4.4778,4.4796,4.4816,4.4822,4.484,4.4853,4.4872,4.488,4.4906,4.4912,4.4917,4.4918,4.4915,4.4915,4.4922,4.492,4.4923,4.4923,4.4923,4.4923,0,4.4653,4.4669,4.4703,4.4729,4.4736,4.4756,4.4778,4.4795,4.4807,4.4832,4.4839,4.4856,4.4879,4.4891,4.492,4.4925,4.4953,4.4954,4.4946,4.4946,4.4959,4.4957,4.5003,4.5009,4.4978,4.4979,4.4979,0,4.4674,4.4695,4.4723,4.4737,4.4751,4.4775,4.479,4.4803,4.4818,4.4843,4.4857,4.4881,4.49,4.4937,4.495,4.4972,4.4972,4.4987,4.4975,4.4971,4.497,4.4968,4.4969,4.4988,4.4989,4.4989,4.4989,0,4.4709,4.4715,4.4739,4.4764,4.4782,4.4802,4.4822,4.4833,4.4848,4.4865,4.4889,4.4905,4.4934,4.4956,4.4978,4.4989,4.4991,4.4993,4.4997,4.4994,4.4987,4.4989,4.495,4.4991,4.4991,4.4991,4.4991,4.4991,4.4731,4.4749,4.4771,4.4796,4.4812,4.483,4.4848,4.4861,4.4882,4.4908,4.4914,4.4939,4.4957,4.4987,4.4999,4.5017,4.5014,4.502,4.5022,4.5023,4.5022,4.4986,4.5021,4.5021,4.5021,4.5021,4.5021,0,4.4765,4.4779,4.4802,4.483,4.4848,4.485,4.4871,4.4886,4.4909,4.4927,4.4946,4.4972,4.4994,4.5009,4.5031,4.5042,4.5043,4.5047,4.5046,4.5048,4.5025,4.5019,4.5046,4.5046,4.5046,4.5046,4.5046,4.5046,4.4785,4.4814,4.4823,4.4859,4.4873,4.4899,4.491,4.4926,4.494,4.497,4.4989,4.4999,4.5015,4.5037,4.5056,4.506,4.5067,4.5071,4.5074,4.5052,4.505,4.5047,4.5041,4.5072,4.5072,4.5095,4.5095,4.5095]}]]